Meteo Giornale » Osservazioni meteo Guinea Equatoriale » Malabo/Fernando Poo
ore: 04:00 - Osservazioni Meteo Malabo/Fernando Poo
Lat. 3° 45' N Lon. 8° 46' E Alt. 56 metri s.l.m.
24 °C
Nuvoloso
Temp. 24 Ore
24 °C
31 °C
Nord
1.8 Km/h
Dew point 24 °C
Umidità 100 %
Visibilità 10 Km
Il sole sorge alle ore 06:19
Il sole tramonta alle ore 18:30
| Data e Ora | Cielo e Fenomeni | T °C | DP °C | Um. % | Pres. hPa | Vis. km | Vento km/h | |
|---|---|---|---|---|---|---|---|---|
| Oggi h: 04:00 | Nuvoloso | 24 | 24 | 100 | 1013 | 10 | N 1.8 | |
| Oggi h: 03:00 | Nuvoloso | 24 | 24 | 100 | 1013 | 10 | N 3.7 | |
| Oggi h: 02:00 | Nuvoloso | 24 | 24 | 100 | 1013 | 10 | N 0 | |
| Oggi h: 01:00 | Nuvoloso | 24 | 24 | 100 | 1013 | 10 | N 3.7 | |
| Oggi h: 00:30 | Nuvoloso | 24 | 24 | 100 | 1013 | 10 | O 7.4 | |
| Oggi h: 00:00 | Nuvoloso | 25 | 25 | 100 | 1014 | 10 | N 3.7 | |
| Ieri h: 23:00 | Poco Nuvoloso | 25 | 25 | 100 | 1015 | 10 | N 3.7 | |
| Ieri h: 22:00 | Poco Nuvoloso | 25 | 25 | 100 | 1014 | 10 | N 3.7 | |
| Ieri h: 21:00 | Poco Nuvoloso | 25 | 25 | 100 | 1012 | 10 | O 9.3 | |
| Ieri h: 20:00 | Poco Nuvoloso | 25 | 25 | 100 | 1012 | 10 | O/SO 9.3 | |
| Ieri h: 19:00 | Poco Nuvoloso | 26 | 26 | 100 | 1012 | 10 | O/SO 11.1 | |
| Ieri h: 18:00 | Poco Nuvoloso | 28 | 26 | 88 | 1011 | 10 | O 13 | |
| Ieri h: 17:00 | Poco Nuvoloso | 29 | 25 | 79 | 1011 | 10 | O 14.8 | |
| Ieri h: 16:00 | Nuvoloso | 31 | 25 | 70 | 1012 | 10 | O 11.1 | |
| Ieri h: 15:00 | Nuvoloso | 31 | 25 | 70 | 1012 | 10 | O 9.3 | |
| Ieri h: 14:00 | Nuvoloso | 30 | 26 | 79 | 1013 | 10 | O 9.3 | |
| Ieri h: 13:00 | Nuvoloso | 30 | 26 | 79 | 1014 | 10 | O 14.8 | |
| Ieri h: 12:00 | Nuvoloso | 29 | 26 | 83 | 1015 | 10 | O 11.1 | |
| Ieri h: 11:00 | Nuvoloso | 30 | 26 | 79 | 1016 | 10 | N 3.7 | |
| Ieri h: 10:00 | Nuvoloso | 29 | 27 | 89 | 1016 | 10 | E 7.4 | |
| Ieri h: 09:00 | Nuvoloso | 27 | 26 | 94 | 1016 | 10 | E 13 | |
| Ieri h: 08:00 | Nuvoloso | 25 | 25 | 100 | 1015 | 10 | N 1.8 | |
| Ieri h: 07:00 | Pioviggine | 24 | 24 | 100 | 1014 | 8 | N 0 | |
| Ieri h: 06:00 | Pioviggine | 25 | 25 | 100 | 1014 | 8 | SO 7.4 | |
| Ieri h: 05:00 | Nuvoloso | 25 | 25 | 100 | 1014 | 8 | O/SO 7.4 | |



